RH
9 7 4 4 4 4 5 5 6 6 6 6 4 4 3 3 2 2 2 2 2 2 2 3 9 15 14 14 14 15 11 9 9 9 9 10 12 13 11 9 9 9 10 9 9
10 9 7 5 4 4 4 5 6 6 7 6 5 4 3 3 3 2 2 2 2 2 3 4 9 15 15 14 15 16 15 12 11 10 9 10 12 13 12 10 8 9 10 9 9
8 10 9 8 6 5 5 5 6 7 7 7 6 4 4 3 2 2 2 2 2 2 4 5 10 17 17 16 16 18 16 16 14 12 12 12 13 15 14 12 11 10 10 9 10
8 8 10 9 9 8 7 7 7 8 7 7 6 4 4 3 3 3 2 2 2 2 4 5 9 16 19 19 18 17 19 18 22 19 18 19 20 20 22 18 19 17 13 15 10
6 8 8 10 9 9 8 8 8 8 8 8 7 5 4 3 3 2 2 2 2 2 6 6 8 15 20 23 22 22 23 22 25 24 24 22 21 21 25 17 19 16 13 13 13
5 7 8 9 10 9 8 8 8 8 8 8 7 6 5 4 3 3 2 3 2 4 6 9 8 14 21 24 27 28 25 26 25 24 24 24 24 24 22 18 17 16 15 14 14
5 6 7 8 9 10 9 8 8 8 8 8 8 7 6 4 4 3 3 3 2 6 12 18 13 11 14 18 24 27 30 31 30 28 26 26 28 30 24 25 20 18 18 18 17
6 7 7 7 8 11 12 10 8 8 8 8 7 7 6 5 4 4 3 3 2 3 12 21 30 28 20 14 17 17 17 16 19 23 23 22 24 19 31 29 27 24 22 22 22
8 7 9 8 9 11 12 12 12 9 8 8 8 7 7 6 5 4 4 3 3 3 7 17 32 39 40 37 34 31 30 32 35 35 27 19 17 13 14 25 29 28 27 26 26
43 10 9 11 11 10 12 13 13 12 10 9 8 8 7 6 6 4 4 4 3 3 4 11 22 36 41 39 37 34 33 32 29 27 28 29 35 30 22 27 32 33 33 33 34
30 19 12 9 13 11 10 12 13 12 12 12 10 9 8 7 6 6 5 5 4 3 4 6 11 23 31 39 45 41 42 41 38 33 29 23 21 25 36 31 37 40 40 40 40
54 38 21 14 11 14 12 11 13 12 13 12 11 10 10 8 7 7 6 5 4 4 3 4 4 18 20 23 25 27 29 30 32 31 26 25 23 21 22 23 32 47 49 47 47
93 70 77 31 14 12 15 17 18 17 15 12 11 10 11 10 8 8 7 6 5 5 4 4 3 7 13 20 22 22 21 22 22 21 20 20 20 22 21 21 22 27 32 42 52
97 94 75 45 24 20 12 18 20 22 20 13 13 11 11 11 8 8 7 7 6 6 5 5 4 4 7 11 18 21 21 22 23 19 16 16 14 18 19 21 25 24 24 27 28
98 96 97 98 81 34 26 26 25 23 19 16 13 13 13 12 10 10 9 8 7 7 6 5 5 4 4 5 5 9 16 21 23 20 17 16 16 13 14 17 21 22 23 25 25
98 98 98 91 96 70 42 37 35 30 14 14 12 13 16 14 14 12 12 10 9 8 7 6 6 5 5 5 6 6 6 7 9 11 12 12 14 12 16 16 15 19 19 23 23
98 97 97 100 100 98 86 61 49 30 23 14 12 11 13 14 15 14 11 11 11 11 9 8 7 6 6 6 5 5 6 6 6 6 6 6 6 6 10 9 15 16 16 16 18
100 100 98 98 100 98 98 92 72 42 29 23 17 17 14 13 13 14 12 10 10 11 9 8 8 7 7 7 6 6 6 6 5 6 6 6 5 5 5 6 8 10 15 16 17
100 98 96 92 100 99 100 95 71 63 40 26 26 23 21 17 15 15 14 13 12 12 12 11 10 8 8 8 7 7 6 8 8 10 9 8 8 6 6 5 7 8 9 10 12
98 98 97 98 100 100 99 91 75 87 78 51 39 36 32 28 20 21 20 17 17 16 16 13 11 10 10 9 9 9 9 10 9 10 11 11 11 10 7 7 6 6 7 7 8
99 97 100 100 100 100 79 52 80 100 97 91 83 74 49 35 30 26 23 20 20 21 20 18 17 14 12 10 11 11 12 13 13 12 10 11 13 13 12 11 10 8 8 8 10
96 97 99 100 100 94 70 53 68 74 88 95 99 100 99 95 82 48 51 39 28 27 25 25 23 19 18 15 14 14 13 13 13 13 14 16 13 13 15 16 17 16 14 13 14
100 100 100 100 100 79 73 77 91 89 81 78 79 98 100 97 100 98 97 93 77 48 34 30 27 25 21 19 18 16 16 17 17 17 14 15 13 15 15 16 17 19 20 22 22
100 100 100 100 99 87 100 98 100 98 87 94 88 87 92 94 92 91 88 69 65 86 95 84 47 33 29 28 25 23 21 21 20 19 17 16 21 19 17 18 19 20 20 21 23
100 100 100 100 100 91 100 98 100 97 98 100 100 96 92 86 79 73 64 57 52 47 44 47 64 48 34 32 30 27 25 23 22 23 22 22 26 20 19 20 20 21 25 26 25
100 100 100 100 100 99 100 97 100 96 100 99 100 100 100 98 87 84 77 68 60 53 48 43 39 38 36 36 36 33 30 32 31 30 30 33 37 32 28 28 27 26 26 27 31
100 100 100 100 100 100 100 95 100 100 100 100 98 100 100 97 99 98 96 92 76 60 53 48 43 42 39 43 47 37 30 33 36 38 35 33 39 44 46 48 48 48 47 53 62
Wind_Speed
45 43 40 39 37 35 33 30 26 22 19 15 13 12 10 8 7 7 7 10 10 11 8 8 11 11 11 11 14 15 16 18 16 15 11 12 11 10 11 11 11 10 10 9 9
48 47 44 42 40 38 36 33 30 26 22 19 17 15 14 11 9 8 8 11 12 12 9 8 11 11 11 10 11 12 15 15 16 16 14 13 12 12 12 12 12 11 12 10 11
54 51 48 46 44 42 39 36 34 30 28 24 22 19 16 15 12 10 10 10 11 12 10 8 11 13 12 11 11 11 14 14 14 15 14 13 12 12 12 13 11 12 11 14 13
57 55 53 51 49 46 44 41 38 35 33 29 26 23 20 17 15 11 11 11 11 12 9 7 12 14 13 13 12 12 13 13 14 13 13 12 12 11 12 14 15 14 13 15 13
63 60 57 54 52 50 48 46 42 40 36 33 30 27 23 19 18 15 13 12 11 11 9 7 12 15 15 15 14 13 14 15 15 15 14 13 14 12 15 15 14 14 14 13 15
65 64 61 58 55 53 51 49 46 43 40 37 34 32 27 22 20 18 16 14 12 11 9 7 11 15 17 17 16 17 16 16 16 17 17 16 15 13 22 14 15 16 15 14 15
66 65 64 62 59 56 53 51 49 46 43 41 38 36 31 26 23 20 19 17 15 13 11 10 9 13 16 18 19 20 19 19 19 19 18 19 16 17 18 17 16 17 16 16 16
67 66 65 65 63 60 56 54 52 50 47 45 42 40 35 31 27 24 21 20 18 17 16 14 13 12 13 14 15 17 18 21 21 24 22 23 19 21 22 20 20 19 18 17 17
70 68 66 66 66 62 59 56 54 52 51 49 47 44 39 35 30 28 25 23 22 21 20 18 17 16 16 16 15 15 14 16 15 18 18 19 19 22 23 23 22 21 20 20 20
71 68 66 65 64 64 62 59 57 55 54 52 51 47 42 37 36 32 29 27 26 25 24 23 22 21 19 20 20 18 17 18 18 13 16 16 17 20 22 23 22 23 23 23 24
70 70 68 67 65 65 65 62 61 59 55 51 51 52 44 42 40 37 34 31 29 28 28 28 26 25 25 26 24 22 22 21 23 18 20 19 14 17 22 23 23 24 25 27 28
71 69 68 67 66 66 65 64 61 60 56 56 55 53 48 47 45 41 38 35 33 32 32 31 27 31 30 29 29 27 26 24 26 23 23 22 17 16 21 22 23 25 28 30 31
74 69 69 67 68 66 64 62 62 61 60 60 58 56 51 50 49 44 41 39 37 35 33 35 31 32 33 32 32 30 29 28 28 28 27 25 21 19 20 22 24 25 25 29 31
83 73 68 68 67 65 64 60 61 60 62 64 60 59 54 53 53 45 45 41 40 38 38 38 36 33 35 36 36 35 34 33 32 32 31 29 26 18 21 21 25 28 27 27 27
83 85 79 75 69 64 62 60 60 60 65 67 65 61 57 56 51 48 46 45 42 41 42 41 39 38 39 38 38 37 39 39 38 38 36 34 32 24 24 28 28 26 29 30 29
81 74 78 77 74 66 62 61 61 60 73 70 68 63 58 56 53 49 47 46 44 45 44 44 42 42 42 40 42 40 39 41 42 41 41 37 37 29 34 33 34 28 29 32 33
75 76 71 74 72 63 60 62 62 70 73 72 68 63 58 55 53 51 49 48 47 46 45 44 44 45 45 43 43 43 41 42 44 42 40 39 39 30 40 36 37 38 35 34 35
77 71 71 69 67 72 67 61 68 74 70 72 66 63 59 55 51 47 49 50 48 47 49 46 46 46 46 44 45 45 45 44 46 44 46 43 43 40 41 41 41 43 43 40 39
78 82 79 75 69 62 69 72 74 76 66 67 65 66 60 56 54 51 47 44 44 44 44 46 50 47 46 46 46 44 45 40 44 43 46 46 41 46 45 45 44 43 44 45 46
60 67 80 78 73 69 72 68 57 62 70 69 65 59 57 54 56 53 49 48 48 45 43 47 45 45 44 45 46 44 42 42 46 46 47 47 46 50 51 48 46 47 47 48 48
65 60 63 75 75 70 77 72 67 61 62 64 64 62 59 54 54 53 53 53 50 47 47 48 50 51 51 51 48 48 46 44 46 50 50 51 50 51 53 54 53 52 51 50 50
64 60 52 67 76 80 77 69 68 66 68 64 57 56 60 61 58 53 50 50 51 49 49 49 52 55 53 54 55 54 53 53 53 52 52 53 58 54 53 54 55 54 53 51 49
58 53 53 53 62 64 66 70 66 67 64 64 61 58 56 54 49 49 50 53 52 49 48 49 53 55 58 60 57 56 55 54 54 55 59 58 60 56 57 56 56 56 56 55 53
53 53 52 52 53 45 44 50 60 67 64 64 62 58 56 54 52 51 52 52 51 51 53 53 53 53 53 54 55 55 53 53 54 58 55 57 55 58 59 59 59 59 59 58 57
57 55 51 54 51 42 45 41 43 50 54 58 62 59 57 57 56 54 56 53 52 52 54 55 55 54 53 52 55 55 55 54 54 53 56 54 53 57 60 61 61 61 60 61 61
44 55 58 59 54 50 53 50 46 41 41 44 52 63 58 59 58 56 56 56 54 54 54 55 55 54 54 56 56 57 59 58 58 57 56 56 58 59 61 62 63 64 65 65 66
34 44 57 58 62 65 63 59 53 47 46 45 45 49 54 61 61 59 57 57 58 56 55 56 57 58 59 58 58 61 61 60 60 59 59 60 60 62 64 66 67 69 70 72 74
Wind_Direction
216 214 213 214 216 218 219 223 226 226 229 238 237 246 253 264 288 308 315 334 341 338 315 250 226 227 226 226 228 225 225 229 233 241 238 249 256 270 269 263 263 262 265 256 248
219 219 218 218 219 222 223 225 229 232 236 240 239 241 254 260 267 282 303 323 330 335 319 250 229 225 229 227 224 228 229 233 233 239 239 247 255 270 278 273 267 267 271 265 258
220 221 220 222 222 223 227 228 231 235 240 244 242 240 247 257 265 278 291 304 318 326 324 259 229 225 224 228 226 222 229 225 230 234 237 238 249 264 270 270 274 270 271 273 267
221 221 222 223 225 227 228 231 233 238 242 244 244 243 246 251 261 270 280 292 306 315 312 260 233 227 227 229 230 224 224 224 225 230 236 239 243 251 260 265 271 275 267 264 258
222 223 223 224 225 227 230 233 236 239 241 244 245 246 248 251 253 258 266 278 288 298 302 262 232 228 226 227 232 233 234 232 231 234 237 244 251 253 257 259 262 264 261 250 254
223 223 224 224 226 227 230 232 234 237 240 243 245 246 249 252 255 256 260 265 273 279 280 262 240 230 227 230 234 234 235 241 241 242 244 249 255 253 252 255 252 256 257 253 250
224 224 224 226 226 228 230 232 235 236 239 242 245 248 248 251 254 254 257 259 261 265 261 256 242 236 233 236 237 239 240 241 244 246 244 244 247 244 256 251 247 249 253 255 255
225 224 224 225 228 228 229 232 234 236 238 241 243 247 248 249 253 254 250 250 252 257 251 246 240 235 231 234 237 247 253 255 250 255 252 254 251 252 257 250 252 249 249 250 254
225 225 226 225 227 229 230 231 233 234 237 239 243 245 247 250 251 251 249 244 245 249 249 244 237 233 235 237 237 245 252 257 254 254 257 257 255 255 251 254 251 250 251 251 253
224 225 227 229 227 228 231 233 233 234 235 238 241 244 244 249 250 251 248 246 245 248 248 245 241 237 238 244 244 246 245 258 261 250 260 259 259 261 253 252 253 253 254 253 256
220 223 223 226 229 229 231 233 235 235 236 239 241 244 242 246 249 249 247 245 244 246 248 247 247 246 242 247 250 251 254 254 261 253 258 261 255 262 265 260 254 259 257 256 254
219 221 224 225 227 230 230 233 236 239 239 239 240 242 243 244 247 248 248 245 244 244 249 251 250 248 250 252 254 257 256 259 260 260 264 262 259 266 268 273 270 260 261 263 263
217 219 222 226 226 229 231 232 235 237 238 238 239 240 241 244 244 245 247 247 246 245 247 249 248 250 253 254 258 258 259 262 265 267 266 266 262 266 273 275 268 265 261 258 264
215 217 219 224 226 228 230 232 235 238 241 239 239 240 239 242 243 243 246 246 247 248 247 247 251 249 254 255 256 257 261 264 268 268 270 269 264 262 272 266 263 267 272 271 269
222 217 217 220 222 228 230 231 233 234 241 240 237 240 240 241 243 241 244 244 247 247 249 250 248 249 252 256 258 258 259 262 263 265 267 271 275 273 268 265 262 267 274 273 270
223 223 223 220 220 222 227 229 231 230 238 240 240 239 240 242 243 243 242 245 246 247 247 251 250 250 251 255 259 261 261 263 264 265 265 268 270 267 270 271 270 264 264 266 272
233 226 221 226 219 219 223 224 226 230 234 241 244 243 242 241 243 244 243 244 247 249 249 248 250 250 251 254 257 260 260 262 265 266 268 267 267 267 268 269 273 274 270 272 272
228 232 239 230 225 221 216 219 225 230 234 241 242 246 243 245 244 244 244 245 247 248 252 251 252 251 252 254 255 258 260 261 266 269 269 267 270 267 263 266 269 271 274 273 272
223 224 229 235 235 230 234 228 236 232 231 236 239 243 244 244 246 245 244 244 243 246 248 250 249 249 251 252 255 255 260 264 265 265 267 270 271 269 267 266 268 268 272 275 278
222 226 224 227 232 231 228 231 235 238 235 237 238 244 247 246 246 246 246 246 247 246 248 250 251 248 247 248 251 255 256 258 262 265 267 269 270 268 270 272 271 270 271 271 271
220 224 226 227 225 227 234 237 230 231 234 236 238 241 244 244 246 247 249 248 247 248 248 250 255 255 253 253 256 256 257 258 259 261 265 269 270 276 279 278 278 276 273 273 276
223 222 227 229 225 225 232 236 233 231 235 237 239 240 241 244 240 243 245 245 246 247 247 251 253 255 258 256 256 257 259 262 262 265 268 268 269 272 274 277 278 279 279 276 275
215 221 229 224 231 236 235 232 231 235 233 235 234 236 239 243 246 248 247 244 241 247 247 248 252 256 256 257 259 264 264 265 265 265 266 269 271 274 274 275 275 276 278 280 281
209 220 227 227 227 223 226 231 236 237 237 235 236 236 238 240 242 243 246 249 249 248 249 248 251 254 258 262 261 260 262 262 263 264 268 267 273 273 272 273 274 275 276 278 280
205 208 209 220 223 231 228 228 236 235 237 238 237 236 237 240 241 241 244 242 243 243 243 246 249 252 255 259 264 265 265 266 266 265 264 268 266 267 271 272 272 274 276 277 277
203 205 208 217 226 231 234 230 240 240 237 242 241 238 232 235 238 241 243 244 242 242 243 245 248 249 251 255 256 259 264 263 263 265 268 269 269 268 269 271 273 273 274 274 276
208 206 206 209 214 215 226 236 235 239 237 237 238 237 241 241 239 238 240 244 246 244 245 245 246 249 250 252 255 256 257 262 265 265 266 267 269 271 271 272 273 273 273 274 275